Vorticity
6 7 7 8 9 10 10 10 10 9 7 6 5 3 2 2 5 10 16 20 20 18 15 13 13 12 11 8 7 7 8 8 8 9 11 14 15 17 19 22 26 25 23 21 21 20 18 17 17 15 13 13 17 20 21 19 18 19 21 23 19 13 9 14 22 24 21 17 17
5 6 7 8 9 9 10 10 9 9 8 6 5 4 3 2 3 8 13 19 20 19 16 13 13 13 13 10 8 7 7 8 8 8 8 10 13 16 20 24 28 29 28 22 24 24 22 20 20 18 15 13 16 19 20 17 15 16 18 21 17 11 9 16 25 26 21 17 18
5 5 6 8 9 9 10 10 9 9 8 7 6 4 3 2 3 6 11 18 20 19 16 13 12 13 14 13 11 9 8 8 8 8 7 7 9 12 16 22 27 30 27 17 17 19 22 25 24 22 18 16 16 17 15 12 8 10 15 20 17 13 14 22 27 26 22 18 17
5 6 6 7 8 9 10 9 9 9 8 7 6 5 4 3 3 5 9 15 19 19 17 13 12 13 15 16 14 11 9 8 8 8 8 7 7 8 12 17 24 29 27 16 9 11 18 26 29 27 22 16 13 12 10 7 5 7 13 20 20 21 23 27 28 26 22 18 16
6 6 6 6 7 8 9 9 9 9 8 7 6 5 5 4 3 4 7 13 18 19 18 14 12 12 13 17 16 14 11 9 9 8 8 8 7 6 7 11 18 26 30 26 11 6 9 19 22 27 27 20 15 11 8 6 7 9 13 18 22 24 25 26 25 23 21 19 15
6 5 5 6 7 8 8 9 9 9 8 7 6 6 5 5 4 4 6 10 16 19 19 15 11 9 10 14 17 17 15 11 10 9 9 9 8 6 5 5 10 18 27 34 24 9 -2 -0 10 16 18 19 18 13 8 7 9 12 16 20 22 23 22 20 19 18 17 16 14
5 5 5 5 6 7 8 9 9 9 8 7 7 6 5 5 5 5 5 7 12 16 18 17 13 9 8 10 14 16 17 14 12 10 9 9 9 8 6 5 5 8 15 25 32 26 13 0 2 4 5 7 18 16 11 11 12 13 17 22 23 23 21 17 13 12 11 11 11
6 5 5 5 5 6 7 8 8 8 8 8 7 6 6 5 5 5 5 6 9 13 17 18 15 11 8 7 10 14 16 17 15 12 10 10 10 9 8 6 5 4 5 9 19 27 32 31 27 22 17 13 19 18 16 16 18 20 22 24 25 25 22 17 12 10 9 9 8
6 6 6 5 5 6 6 7 8 8 8 7 7 6 6 5 5 5 5 5 7 10 13 16 16 13 10 8 8 10 13 16 16 15 13 11 10 10 10 8 7 5 4 2 6 13 22 31 33 32 28 25 23 21 20 20 21 22 22 23 23 22 20 16 13 11 9 8 8
6 6 6 6 6 6 6 6 7 7 7 7 7 6 6 5 5 6 6 5 5 7 10 13 15 15 13 10 9 9 10 12 14 15 15 13 12 11 11 10 9 7 6 4 3 4 7 13 20 23 24 22 21 21 20 19 19 19 19 18 16 15 13 12 11 10 9 8 7
6 6 6 6 5 5 5 6 6 7 7 7 7 6 6 6 6 5 5 5 5 6 7 10 13 14 14 13 12 10 9 9 10 12 13 14 14 13 13 12 11 9 8 7 6 5 4 4 7 10 12 12 12 13 13 13 13 12 12 13 12 10 9 9 8 8 7 6 5
6 6 6 6 6 5 5 5 6 6 7 7 7 6 6 6 6 5 5 6 6 5 5 7 9 12 14 15 14 13 11 9 8 8 10 12 14 15 15 14 13 11 9 8 8 9 8 6 4 3 2 2 1 2 5 9 11 10 9 8 8 8 8 7 7 7 6 5 3
6 6 6 6 6 6 6 5 5 6 6 7 7 6 6 6 6 6 6 6 6 5 4 4 6 9 12 14 14 14 13 12 9 8 7 9 12 14 16 16 15 13 11 10 9 9 9 8 2 -1 -2 2 2 1 1 3 9 13 14 7 5 5 7 8 8 7 7 5 3
6 6 6 6 6 6 6 6 5 6 6 6 6 6 6 6 6 6 6 7 6 5 4 3 4 6 8 11 13 14 14 14 13 11 9 9 10 12 14 16 16 15 13 12 10 9 7 2 -9 -15 -12 4 14 13 6 2 7 16 21 14 6 4 5 7 8 9 8 7 6
6 6 7 7 7 7 7 6 5 5 5 5 5 6 6 6 6 7 7 7 7 6 5 3 3 4 6 8 10 12 13 14 14 14 13 11 11 11 11 13 16 16 16 14 13 11 9 4 -7 -16 -17 -5 12 20 19 7 7 11 17 17 10 6 4 5 7 9 9 9 9
6 6 7 7 7 7 7 6 6 5 5 4 4 5 5 6 6 7 7 7 7 7 6 5 4 3 4 5 7 9 11 12 13 14 14 14 13 12 11 10 12 15 16 16 15 13 12 11 7 2 -2 -3 1 11 20 22 12 6 6 10 10 8 6 5 6 8 9 10 10
6 7 7 7 7 7 7 7 6 6 5 4 4 4 4 5 5 6 7 7 7 8 7 7 5 3 3 3 5 6 8 10 11 12 13 15 16 16 15 12 11 12 14 16 16 15 13 13 12 12 10 8 2 2 7 18 19 13 8 6 7 8 7 7 7 7 8 10 10
7 7 7 7 8 7 7 7 6 6 5 4 4 4 4 4 4 5 6 7 7 8 8 7 6 4 3 2 3 4 5 7 8 10 11 13 15 17 18 17 15 13 12 13 14 15 15 14 13 13 13 13 10 5 3 6 15 18 17 13 9 7 6 7 7 7 8 10 11
7 7 7 8 7 7 7 7 7 6 5 4 4 3 3 3 3 4 5 6 7 7 8 7 7 6 4 3 2 3 3 5 6 7 9 10 12 14 16 18 18 17 15 13 13 13 14 15 15 14 13 13 13 11 7 4 8 13 18 20 15 11 7 6 6 6 8 10 12
7 7 7 7 7 7 8 8 7 6 5 5 4 4 4 3 3 4 4 5 6 6 7 8 7 7 6 4 3 2 2 3 4 5 7 8 9 10 12 15 17 19 19 17 14 13 13 14 15 15 15 14 14 13 12 8 7 9 13 18 19 16 12 7 6 6 7 9 11
8 7 7 7 7 8 8 8 7 6 6 5 5 4 4 4 4 4 4 4 4 5 6 7 8 7 7 5 4 2 2 2 2 3 4 6 7 8 10 11 13 16 18 19 18 16 14 13 13 14 15 15 15 14 14 12 9 8 10 13 16 17 16 12 8 6 6 7 10
8 7 7 7 7 8 8 8 7 7 6 6 5 5 4 4 4 4 4 4 4 5 5 6 7 7 7 6 5 3 2 1 1 1 2 4 5 7 8 9 11 12 14 16 18 18 17 15 14 13 14 15 16 16 15 14 12 10 9 9 10 12 13 13 12 9 7 6 8
8 7 7 7 7 8 8 8 8 7 7 6 5 5 5 5 5 5 5 5 5 5 5 5 6 7 7 7 5 4 3 2 1 1 1 1 3 5 6 8 9 11 12 13 15 17 18 18 17 15 14 14 15 16 16 16 15 13 11 9 6 6 7 10 12 12 11 8 7
8 8 7 7 8 8 8 8 8 8 7 6 6 5 5 5 5 5 5 5 5 5 5 5 6 6 7 7 6 5 4 3 2 2 1 1 1 2 4 6 8 10 11 12 13 14 16 18 18 17 16 14 14 15 16 16 17 16 15 13 8 5 4 6 10 12 13 12 10
8 8 8 8 8 8 8 9 9 8 8 7 6 6 6 5 5 5 5 6 6 6 6 6 6 6 6 7 7 6 5 4 4 3 2 2 1 2 3 4 6 8 10 11 12 13 14 15 17 18 18 17 15 14 14 15 16 17 18 18 14 10 6 4 6 10 13 14 13
8 8 8 8 8 8 9 10 9 8 7 7 6 6 6 5 5 6 6 6 6 6 6 6 6 7 7 7 7 7 6 6 5 4 3 2 2 2 2 3 5 6 8 10 11 12 13 14 15 16 17 18 17 16 14 13 14 15 17 18 18 16 12 8 6 6 8 11 12
8 9 9 8 8 9 9 9 9 8 8 7 7 6 6 5 5 6 6 6 6 6 6 6 6 7 7 7 7 7 6 6 5 4 4 3 2 2 2 2 4 5 7 8 10 12 13 14 15 15 16 17 18 17 16 14 13 13 14 16 18 19 18 15 10 7 5 4 4
9 9 8 8 9 9 9 9 9 9 8 7 7 6 5 5 5 6 6 6 6 6 6 6 7 7 7 7 7 7 6 6 5 5 4 3 2 2 2 2 3 4 5 7 9 10 12 13 14 15 16 16 17 18 18 17 15 13 12 12 14 16 18 19 16 13 8 4 0
9 9 9 9 9 9 9 10 10 9 8 7 6 6 5 5 5 5 5 5 6 6 6 6 6 7 7 8 7 7 7 6 6 5 4 4 3 2 2 1 2 3 4 6 8 10 11 12 13 14 15 16 17 18 18 18 17 16 14 12 12 13 15 17 17 16 14 11 7
9 9 9 9 9 9 10 10 9 9 8 7 7 6 6 5 5 5 5 5 6 6 6 6 6 7 7 7 7 7 7 7 6 6 5 4 4 3 2 2 2 2 3 5 7 9 10 12 13 13 14 15 16 17 18 19 19 18 17 15 13 12 12 13 14 15 15 14 13
10 10 10 9 10 10 10 10 9 9 8 7 7 6 6 5 5 5 5 5 5 5 5 6 6 6 6 6 7 7 7 7 6 6 6 5 5 4 3 2 2 2 3 4 6 7 9 11 12 13 14 14 15 16 17 18 19 20 19 18 16 14 13 12 12 12 12 12 13
10 10 10 10 10 9 9 9 9 9 8 8 7 6 6 6 5 5 5 5 5 5 5 6 6 6 6 7 7 7 7 7 7 7 6 6 5 4 4 3 3 2 2 3 4 6 8 10 12 13 14 14 14 15 16 17 19 20 20 20 19 17 15 14 13 13 12 10 10
10 10 10 10 9 9 9 9 9 8 8 7 7 6 6 6 5 5 5 5 5 5 5 5 6 6 6 7 7 7 7 7 7 6 6 6 5 5 4 4 3 3 3 3 4 5 7 9 11 13 14 14 14 14 14 15 17 19 21 21 21 20 18 16 15 14 13 12 10
11 10 10 10 9 9 9 9 9 8 8 7 7 6 6 5 5 5 5 4 5 5 5 5 6 6 6 6 6 6 6 6 6 6 6 6 6 5 5 4 4 3 3 3 3 4 5 7 10 12 14 15 15 15 14 13 15 17 20 22 23 22 21 19 17 16 15 14 13
10 10 10 10 9 9 9 9 8 8 7 7 7 6 6 6 5 5 4 4 4 4 5 5 5 5 6 6 6 6 6 6 6 6 6 6 6 5 5 4 4 3 3 3 3 4 4 5 7 10 12 14 16 16 15 14 13 14 16 20 23 24 24 22 20 19 17 16 15
11 10 10 10 9 9 9 9 8 8 7 7 7 6 6 6 5 5 4 4 4 4 4 4 5 5 6 6 6 7 7 6 6 6 6 6 5 5 5 4 4 3 3 3 3 3 4 4 5 7 9 12 14 16 17 16 14 13 13 15 20 23 26 26 24 22 20 18 17
11 11 10 10 9 9 9 9 8 8 7 7 7 6 6 5 5 5 4 4 4 4 4 4 4 5 5 5 6 6 6 6 6 6 6 6 6 5 5 4 4 4 3 3 2 3 3 3 4 5 7 9 11 14 16 17 17 15 13 12 15 19 23 27 27 26 24 21 20
11 11 10 10 9 9 9 9 8 8 7 7 7 6 6 5 5 5 4 4 4 4 4 4 4 5 5 5 5 6 6 6 6 6 6 6 6 5 5 4 4 4 3 3 3 2 3 3 3 4 5 6 8 11 13 16 17 17 15 13 13 14 18 23 27 28 28 26 23
11 11 10 10 9 9 9 9 8 8 7 7 6 6 6 6 5 5 4 4 4 4 4 4 4 4 5 5 5 5 6 6 6 6 6 6 6 5 5 5 4 4 4 3 3 3 3 3 3 3 4 5 6 8 10 13 15 16 16 15 13 13 14 17 22 27 29 30 27
11 11 10 10 9 9 9 8 8 8 7 7 6 6 6 6 5 5 4 4 4 4 4 4 4 4 4 5 5 5 5 5 6 6 6 6 5 5 5 5 4 4 4 4 4 3 3 3 3 3 3 4 5 7 8 10 12 14 14 14 14 13 13 14 17 22 27 30 30
10 10 10 10 9 9 9 8 8 7 7 7 7 6 6 5 5 5 5 4 5 4 4 4 4 4 4 5 5 5 5 5 5 5 5 5 5 5 5 5 4 4 4 4 4 4 3 3 3 3 3 3 4 6 7 9 10 12 13 13 13 12 12 13 15 18 22 27 30
Height
5658 5656 5654 5652 5650 5648 5646 5643 5641 5639 5636 5634 5632 5629 5626 5623 5620 5616 5612 5609 5605 5602 5600 5597 5595 5592 5589 5586 5584 5581 5579 5576 5573 5571 5568 5565 5563 5561 5560 5559 5557 5555 5554 5551 5546 5544 5544 5543 5543 5543 5542 5542 5544 5546 5548 5549 5551 5553 5556 5559 5561 5563 5565 5568 5570 5573 5576 5579 5582
5657 5655 5653 5651 5649 5647 5645 5643 5641 5638 5636 5634 5631 5629 5626 5623 5620 5617 5613 5609 5606 5603 5600 5598 5595 5593 5590 5587 5585 5582 5580 5577 5575 5572 5570 5568 5565 5563 5561 5560 5559 5558 5557 5556 5552 5549 5548 5548 5548 5548 5548 5548 5548 5550 5552 5554 5556 5559 5561 5563 5565 5566 5568 5570 5572 5575 5577 5580 5583
5656 5654 5652 5650 5648 5646 5645 5642 5641 5638 5636 5634 5631 5629 5626 5623 5621 5617 5614 5610 5606 5604 5601 5598 5596 5594 5591 5589 5586 5584 5581 5579 5576 5574 5572 5570 5567 5565 5564 5561 5561 5560 5559 5559 5558 5555 5552 5551 5551 5552 5552 5552 5554 5555 5556 5558 5560 5562 5565 5567 5569 5570 5571 5572 5574 5576 5579 5582 5585
5655 5653 5651 5650 5648 5646 5644 5642 5640 5638 5636 5634 5631 5629 5626 5624 5621 5618 5614 5611 5607 5604 5602 5599 5597 5595 5592 5590 5588 5586 5583 5581 5578 5576 5574 5572 5570 5568 5566 5564 5564 5563 5562 5562 5562 5562 5560 5557 5555 5555 5556 5556 5556 5558 5560 5562 5564 5566 5568 5570 5571 5571 5573 5575 5576 5579 5581 5584 5586
5654 5652 5651 5649 5647 5646 5644 5642 5640 5638 5636 5633 5631 5629 5626 5624 5621 5618 5615 5612 5609 5606 5603 5600 5598 5596 5593 5591 5589 5587 5585 5583 5580 5578 5576 5575 5573 5571 5569 5567 5566 5566 5565 5565 5565 5565 5565 5564 5564 5563 5563 5561 5561 5561 5563 5565 5567 5570 5572 5573 5574 5575 5576 5577 5579 5581 5583 5586 5588
5653 5652 5650 5648 5647 5645 5643 5641 5639 5637 5636 5633 5631 5629 5626 5624 5621 5619 5616 5613 5610 5607 5604 5601 5599 5597 5595 5592 5591 5589 5587 5585 5582 5580 5578 5576 5575 5573 5571 5570 5569 5568 5568 5568 5567 5566 5566 5567 5568 5569 5569 5568 5567 5566 5566 5567 5569 5571 5574 5576 5577 5578 5578 5579 5581 5583 5585 5588 5590
5652 5651 5649 5648 5646 5644 5643 5641 5639 5637 5635 5633 5631 5629 5627 5624 5622 5620 5617 5614 5611 5608 5605 5603 5600 5598 5596 5594 5592 5590 5588 5587 5585 5582 5581 5579 5577 5576 5574 5573 5571 5570 5570 5569 5569 5570 5569 5568 5568 5570 5571 5570 5569 5569 5570 5570 5570 5572 5575 5577 5578 5579 5580 5582 5583 5585 5587 5589 5592
5651 5650 5648 5647 5645 5644 5642 5640 5638 5637 5635 5633 5631 5629 5627 5625 5622 5620 5618 5615 5612 5610 5607 5604 5602 5600 5597 5596 5594 5592 5590 5589 5586 5585 5583 5581 5580 5578 5577 5575 5574 5573 5572 5571 5571 5571 5571 5571 5570 5570 5570 5570 5570 5571 5571 5571 5572 5573 5575 5577 5578 5580 5582 5583 5585 5587 5589 5591 5593
5651 5649 5647 5646 5644 5643 5641 5640 5638 5636 5635 5633 5631 5629 5627 5625 5622 5621 5618 5616 5614 5611 5608 5606 5603 5601 5599 5597 5595 5593 5591 5590 5588 5586 5585 5583 5582 5581 5579 5578 5576 5576 5575 5574 5574 5573 5573 5573 5573 5573 5573 5574 5574 5574 5574 5574 5575 5576 5577 5578 5580 5582 5584 5586 5587 5589 5591 5592 5594
5650 5648 5646 5645 5644 5642 5641 5639 5637 5636 5634 5632 5630 5628 5626 5625 5623 5621 5619 5617 5615 5612 5609 5607 5605 5602 5600 5598 5596 5595 5593 5591 5590 5588 5586 5585 5584 5582 5581 5580 5579 5578 5577 5576 5576 5576 5576 5576 5576 5576 5576 5577 5577 5577 5578 5578 5579 5580 5580 5581 5582 5584 5585 5587 5589 5591 5592 5594 5595
5648 5647 5646 5644 5643 5641 5640 5638 5637 5635 5633 5632 5630 5628 5626 5625 5623 5621 5619 5617 5615 5613 5611 5608 5606 5604 5602 5600 5598 5596 5595 5593 5591 5590 5588 5587 5586 5585 5584 5583 5582 5581 5580 5579 5578 5578 5578 5578 5578 5579 5579 5580 5581 5581 5582 5582 5583 5583 5584 5585 5585 5586 5587 5589 5590 5592 5593 5594 5596
5647 5646 5645 5643 5642 5641 5639 5638 5636 5635 5633 5631 5630 5628 5626 5625 5623 5621 5620 5618 5616 5614 5612 5610 5607 5605 5603 5601 5599 5597 5596 5594 5593 5591 5590 5589 5588 5586 5586 5585 5584 5583 5582 5581 5581 5581 5581 5581 5581 5581 5581 5582 5583 5583 5584 5585 5586 5587 5587 5588 5588 5589 5589 5591 5592 5593 5594 5594 5596
5646 5645 5644 5642 5641 5640 5638 5637 5636 5634 5632 5631 5629 5628 5626 5625 5623 5622 5620 5618 5617 5615 5613 5611 5609 5606 5604 5602 5601 5599 5597 5596 5594 5593 5591 5590 5589 5588 5587 5586 5586 5585 5584 5584 5583 5583 5583 5583 5583 5583 5583 5584 5585 5585 5585 5586 5588 5589 5590 5590 5591 5591 5592 5593 5593 5595 5596 5596 5597
5645 5644 5643 5641 5640 5639 5638 5636 5635 5633 5632 5631 5629 5627 5626 5625 5623 5622 5620 5619 5617 5615 5613 5611 5610 5608 5606 5604 5602 5600 5598 5597 5595 5594 5593 5591 5591 5590 5589 5588 5587 5587 5586 5586 5585 5585 5585 5584 5584 5584 5585 5586 5586 5586 5586 5586 5589 5591 5591 5591 5592 5592 5593 5594 5595 5596 5596 5597 5598
5644 5642 5641 5641 5639 5638 5637 5636 5634 5633 5631 5630 5629 5627 5626 5625 5623 5622 5620 5619 5617 5616 5614 5612 5610 5609 5607 5605 5603 5601 5600 5598 5596 5595 5594 5593 5592 5591 5590 5590 5589 5588 5587 5587 5586 5586 5586 5586 5585 5585 5586 5586 5587 5588 5588 5588 5590 5591 5592 5592 5592 5593 5594 5595 5595 5596 5597 5598 5599
5642 5641 5640 5639 5638 5637 5636 5635 5633 5632 5631 5629 5628 5627 5626 5624 5623 5622 5620 5619 5617 5616 5614 5612 5611 5609 5607 5606 5604 5602 5601 5599 5597 5596 5595 5594 5593 5592 5591 5590 5590 5589 5589 5588 5588 5587 5587 5587 5587 5586 5587 5587 5588 5588 5589 5589 5590 5591 5592 5592 5592 5593 5594 5594 5595 5596 5597 5598 5599
5641 5640 5639 5638 5637 5636 5635 5634 5632 5631 5630 5629 5627 5626 5625 5624 5622 5621 5620 5619 5617 5616 5614 5613 5611 5610 5608 5606 5605 5603 5601 5600 5599 5597 5596 5595 5593 5593 5592 5591 5591 5590 5590 5589 5589 5588 5587 5587 5587 5587 5587 5587 5588 5588 5589 5590 5590 5591 5592 5592 5592 5593 5593 5594 5595 5596 5596 5597 5598
5639 5638 5637 5636 5636 5635 5634 5632 5631 5630 5629 5628 5626 5625 5624 5623 5622 5621 5620 5618 5617 5616 5615 5613 5611 5610 5609 5607 5606 5604 5602 5601 5600 5598 5597 5596 5594 5593 5592 5591 5591 5591 5590 5590 5589 5589 5588 5588 5587 5587 5587 5588 5588 5588 5588 5589 5590 5591 5591 5592 5592 5592 5593 5593 5594 5595 5596 5596 5597
5638 5637 5636 5635 5634 5633 5632 5631 5630 5629 5628 5627 5626 5625 5623 5622 5621 5620 5619 5618 5616 5616 5614 5613 5612 5611 5609 5607 5606 5604 5603 5601 5600 5599 5598 5596 5595 5594 5593 5592 5591 5591 5590 5590 5590 5589 5589 5588 5588 5588 5588 5588 5588 5588 5588 5588 5589 5590 5591 5591 5591 5592 5592 5593 5593 5594 5595 5596 5596
5636 5636 5635 5634 5633 5632 5631 5630 5629 5628 5627 5626 5625 5624 5622 5621 5620 5619 5618 5617 5616 5615 5614 5613 5611 5611 5609 5608 5606 5605 5603 5602 5601 5599 5598 5597 5596 5595 5593 5592 5591 5591 5590 5590 5590 5589 5589 5588 5588 5588 5588 5588 5588 5588 5588 5588 5588 5589 5589 5590 5591 5591 5592 5592 5592 5593 5593 5594 5595
5635 5634 5633 5632 5631 5631 5630 5629 5628 5627 5626 5625 5624 5623 5621 5620 5619 5618 5617 5616 5615 5614 5613 5612 5611 5610 5609 5608 5606 5605 5604 5602 5601 5600 5599 5597 5596 5595 5594 5593 5592 5591 5591 5590 5590 5589 5589 5588 5588 5588 5587 5588 5588 5588 5588 5588 5588 5588 5588 5589 5590 5591 5591 5591 5592 5592 5592 5593 5593
5633 5632 5631 5631 5630 5629 5628 5627 5626 5626 5625 5623 5622 5621 5621 5619 5618 5617 5616 5615 5614 5613 5612 5611 5610 5609 5608 5607 5606 5605 5604 5602 5601 5600 5599 5598 5596 5596 5594 5593 5592 5591 5591 5590 5590 5589 5589 5588 5588 5588 5587 5587 5587 5587 5588 5588 5588 5588 5588 5588 5589 5589 5590 5591 5591 5591 5591 5592 5592
5631 5631 5630 5629 5628 5627 5627 5626 5625 5624 5623 5622 5621 5620 5619 5618 5617 5616 5615 5614 5613 5612 5611 5610 5609 5608 5607 5606 5606 5605 5604 5602 5601 5600 5599 5598 5597 5596 5595 5594 5593 5592 5591 5590 5590 5589 5588 5588 5588 5587 5587 5586 5586 5586 5587 5587 5587 5587 5587 5587 5587 5588 5589 5589 5590 5590 5590 5591 5591
5630 5629 5628 5627 5627 5626 5625 5624 5624 5623 5622 5621 5620 5619 5618 5617 5616 5615 5614 5613 5612 5611 5610 5609 5608 5607 5606 5606 5605 5604 5603 5602 5601 5600 5599 5598 5597 5596 5595 5594 5593 5592 5591 5591 5590 5589 5588 5588 5587 5587 5587 5586 5586 5586 5586 5586 5586 5586 5587 5587 5587 5587 5587 5587 5588 5588 5589 5589 5590
5628 5627 5626 5626 5625 5625 5624 5623 5622 5621 5621 5620 5619 5618 5617 5616 5615 5614 5613 5612 5611 5610 5609 5608 5607 5606 5606 5605 5604 5603 5602 5601 5600 5599 5598 5598 5597 5596 5595 5594 5593 5592 5591 5591 5590 5589 5588 5587 5587 5586 5586 5586 5586 5585 5585 5585 5585 5585 5586 5586 5586 5586 5586 5586 5586 5586 5587 5587 5588
5626 5625 5625 5624 5623 5623 5622 5621 5621 5620 5619 5618 5617 5616 5616 5615 5614 5613 5612 5611 5610 5609 5608 5607 5606 5606 5605 5604 5603 5602 5601 5601 5600 5599 5598 5597 5596 5596 5595 5594 5593 5592 5591 5591 5590 5589 5588 5587 5586 5586 5586 5585 5585 5585 5584 5584 5584 5584 5584 5584 5584 5585 5585 5584 5584 5585 5585 5586 5586
5624 5623 5622 5622 5621 5621 5621 5620 5619 5618 5617 5616 5616 5615 5614 5613 5612 5611 5611 5610 5609 5608 5607 5606 5606 5605 5604 5603 5602 5601 5601 5600 5599 5598 5597 5596 5596 5595 5594 5593 5593 5592 5591 5591 5590 5589 5588 5587 5586 5586 5585 5584 5584 5584 5583 5583 5582 5582 5582 5582 5583 5583 5583 5583 5583 5583 5583 5584 5585
5621 5621 5621 5620 5620 5619 5619 5618 5617 5617 5616 5615 5614 5613 5613 5612 5611 5610 5610 5609 5608 5607 5606 5605 5604 5603 5603 5602 5601 5601 5600 5599 5598 5597 5596 5596 5595 5594 5593 5593 5592 5591 5591 5590 5589 5588 5588 5587 5586 5585 5584 5584 5583 5583 5582 5582 5581 5581 5581 5581 5581 5581 5581 5581 5581 5582 5582 5583 5583
5619 5619 5618 5618 5617 5617 5616 5616 5616 5615 5614 5614 5613 5612 5611 5610 5610 5609 5608 5607 5606 5606 5605 5604 5603 5602 5601 5601 5600 5599 5599 5598 5597 5596 5596 5595 5594 5593 5593 5592 5591 5591 5590 5589 5588 5588 5587 5586 5586 5585 5584 5583 5582 5582 5581 5581 5581 5580 5580 5579 5579 5579 5579 5580 5580 5580 5580 5581 5581
5617 5616 5616 5616 5615 5615 5614 5614 5614 5613 5612 5612 5611 5610 5610 5609 5608 5607 5607 5606 5605 5605 5604 5603 5602 5601 5601 5600 5599 5598 5597 5597 5596 5595 5595 5594 5593 5592 5592 5591 5590 5589 5589 5588 5587 5587 5586 5585 5585 5584 5583 5582 5581 5581 5580 5580 5579 5579 5578 5578 5577 5577 5577 5577 5577 5578 5578 5578 5579
5615 5614 5614 5613 5613 5612 5612 5612 5611 5611 5611 5610 5609 5609 5608 5607 5607 5606 5605 5605 5604 5603 5602 5601 5601 5600 5599 5598 5598 5597 5596 5596 5595 5594 5593 5593 5592 5591 5591 5590 5589 5588 5588 5587 5586 5586 5585 5584 5584 5583 5582 5581 5581 5580 5579 5578 5578 5577 5577 5576 5576 5576 5575 5575 5575 5576 5576 5576 5576
5612 5612 5611 5611 5611 5610 5610 5610 5609 5609 5608 5608 5607 5607 5606 5606 5605 5604 5603 5603 5602 5601 5601 5600 5599 5599 5598 5597 5596 5596 5595 5594 5593 5593 5592 5591 5591 5590 5589 5589 5588 5587 5586 5586 5585 5584 5584 5583 5582 5581 5581 5580 5579 5579 5578 5577 5576 5576 5575 5575 5574 5573 5573 5573 5573 5573 5573 5573 5573
5610 5610 5609 5609 5608 5608 5608 5607 5607 5606 5606 5606 5606 5605 5604 5604 5603 5602 5602 5601 5600 5600 5599 5598 5598 5597 5596 5596 5595 5594 5593 5592 5592 5591 5591 5590 5589 5588 5588 5587 5586 5586 5585 5584 5584 5583 5582 5581 5581 5580 5580 5579 5578 5577 5576 5576 5575 5574 5573 5573 5572 5571 5571 5570 5570 5570 5571 5571 5571
5607 5607 5607 5606 5606 5606 5605 5605 5605 5604 5604 5604 5603 5603 5602 5602 5601 5601 5600 5599 5598 5598 5597 5596 5596 5595 5594 5594 5593 5592 5592 5591 5590 5590 5589 5588 5587 5587 5586 5586 5585 5584 5583 5583 5582 5581 5581 5580 5579 5579 5578 5577 5576 5576 5575 5574 5573 5573 5572 5571 5570 5570 5569 5568 5568 5567 5567 5568 5568
5605 5605 5604 5604 5604 5603 5603 5603 5602 5602 5601 5601 5601 5601 5600 5600 5599 5599 5598 5597 5596 5596 5595 5594 5594 5593 5592 5592 5591 5591 5590 5589 5589 5588 5587 5586 5586 5585 5585 5584 5583 5582 5581 5581 5580 5580 5579 5578 5577 5577 5576 5576 5575 5574 5573 5572 5572 5571 5570 5569 5569 5568 5567 5566 5566 5565 5565 5565 5565
5603 5602 5602 5601 5601 5601 5601 5600 5600 5600 5599 5599 5598 5598 5598 5597 5597 5596 5596 5595 5595 5594 5593 5592 5592 5591 5591 5590 5589 5589 5588 5587 5587 5586 5585 5585 5584 5583 5583 5582 5581 5580 5579 5579 5578 5577 5577 5576 5576 5575 5574 5574 5573 5572 5571 5571 5570 5569 5568 5568 5567 5566 5565 5564 5564 5563 5562 5562 5561
5600 5600 5599 5599 5599 5598 5598 5598 5597 5597 5596 5596 5596 5596 5595 5595 5595 5594 5594 5593 5593 5592 5591 5591 5590 5589 5589 5588 5587 5586 5586 5585 5585 5584 5583 5583 5582 5581 5581 5580 5579 5578 5577 5577 5576 5576 5575 5574 5574 5573 5572 5571 5571 5570 5570 5569 5568 5567 5566 5566 5565 5564 5563 5562 5561 5561 5560 5559 5559
5598 5597 5597 5596 5596 5596 5596 5595 5595 5595 5594 5594 5594 5593 5593 5593 5592 5592 5591 5591 5591 5590 5589 5589 5588 5587 5587 5586 5585 5585 5584 5583 5582 5582 5581 5581 5580 5579 5579 5578 5577 5576 5576 5575 5574 5573 5573 5572 5571 5571 5570 5570 5569 5568 5568 5567 5566 5565 5564 5563 5562 5561 5561 5560 5559 5559 5558 5557 5556
5595 5595 5594 5594 5594 5593 5593 5593 5592 5592 5592 5591 5591 5591 5591 5590 5590 5589 5589 5588 5588 5588 5587 5586 5586 5585 5585 5584 5583 5582 5582 5581 5580 5580 5579 5578 5577 5577 5576 5576 5575 5574 5573 5572 5572 5571 5570 5570 5569 5569 5568 5567 5567 5566 5566 5565 5564 5563 5562 5561 5560 5559 5558 5557 5557 5556 5556 5555 5554
5592 5592 5592 5591 5591 5591 5591 5590 5590 5590 5589 5589 5589 5588 5588 5588 5587 5587 5586 5586 5586 5585 5585 5584 5584 5583 5582 5582 5581 5581 5580 5579 5578 5578 5577 5576 5575 5575 5574 5573 5573 5572 5571 5570 5570 5569 5568 5567 5567 5566 5566 5565 5564 5564 5563 5562 5561 5561 5560 5559 5558 5557 5556 5555 5554 5554 5553 5552 5551
5590 5590 5589 5589 5589 5588 5588 5588 5587 5587 5587 5586 5586 5586 5586 5585 5585 5584 5584 5584 5583 5583 5582 5582 5581 5581 5580 5580 5579 5579 5578 5577 5577 5576 5575 5574 5573 5573 5572 5571 5571 5570 5569 5568 5567 5566 5566 5565 5564 5564 5563 5562 5562 5561 5561 5560 5559 5558 5557 5557 5556 5555 5553 5552 5551 5551 5550 5550 5549